Terminal Aerodrome Forecast
Issued by NWS

Home | Current Version | Previous Version | Graphics & Text | Print | Product List | Glossary On
Versions: 1 2 3 4 5 6 7 8 9 10 11 12 13 14 15 16 17 18 19 20
000
FTUS43 KBIS 280500
TAFJMS
TAF
KJMS 280527Z 2806/2906 15005KT P6SM BKN035 OVC040
     FM281000 16005KT P6SM VCSH OVC025
     FM282200 15009KT P6SM SCT035=

USA.gov is the U.S. government's official web portal to all federal, state and local government web resources and services.